This is the latest recevied weather packets stored in our database for station/object KK7KHO. If no packets are shown the sender has not sent any weather packets the latest 10 day(s).
| Time | Temp. | Humidity | Pressure | Rain* | Wind** | Luminosity | Snow |
|---|---|---|---|---|---|---|---|
| 1777162742 | 18.33° C | 36% | 1008.6 hPa | 0 mm | - | 297 W/m² | - |
| 1777162437 | 18.33° C | 36% | 1008.7 hPa | 0 mm | - | 309 W/m² | - |
| 1777162136 | 18.33° C | 35% | 1008.7 hPa | 0 mm | - | 322 W/m² | - |
| 1777161833 | 18.33° C | 35% | 1008.8 hPa | 0 mm | - | 335 W/m² | - |
| 1777161530 | 18.89° C | 39% | 1008.8 hPa | 0 mm | - | 347 W/m² | - |
| 1777161226 | 18.89° C | 37% | 1008.9 hPa | 0 mm | - | 360 W/m² | - |
| 1777160922 | 18.89° C | 37% | 1008.8 hPa | 0 mm | - | 373 W/m² | - |
| 1777160617 | 19.44° C | 34% | 1008.8 hPa | 0 mm | - | 384 W/m² | - |
| 1777160313 | 18.33° C | 36% | 1008.8 hPa | 0 mm | - | 396 W/m² | - |
| 1777160010 | 18.89° C | 34% | 1009.2 hPa | 0 mm | - | 409 W/m² | - |
| 1777159706 | 17.78° C | 34% | 1008.9 hPa | 0 mm | - | 418 W/m² | - |
| 1777159401 | 18.33° C | 34% | 1009.1 hPa | 0 mm | - | 430 W/m² | - |
| 1777159098 | 18.33° C | 34% | 1009.2 hPa | 0 mm | - | 441 W/m² | - |
| 1777158795 | 20° C | 34% | 1009.1 hPa | 0 mm | - | 451 W/m² | - |
| 1777158493 | 19.44° C | 38% | 1009.1 hPa | 0 mm | - | 462 W/m² | - |
| 1777158189 | 18.89° C | 38% | 1009.3 hPa | 0 mm | - | 473 W/m² | - |
| 1777157885 | 18.89° C | 39% | 1009.2 hPa | 0 mm | - | 482 W/m² | - |
| 1777157581 | 19.44° C | 38% | 1009.3 hPa | 0 mm | - | 492 W/m² | - |
| 1777157277 | 18.33° C | 40% | 1009.5 hPa | 0 mm | - | 502 W/m² | - |
| 1777156971 | 18.89° C | 40% | 1009.5 hPa | 0 mm | - | 512 W/m² | - |
| 1777156666 | 18.89° C | 38% | 1009.4 hPa | 0 mm | - | 522 W/m² | - |
| 1777156363 | 19.44° C | 39% | 1009.3 hPa | 0 mm | - | 531 W/m² | - |
| 1777156059 | 18.33° C | 42% | 1009.4 hPa | 0 mm | - | 539 W/m² | - |
| 1777155756 | 18.33° C | 39% | 1009.7 hPa | 0 mm | - | 548 W/m² | - |
| 1777155452 | 18.89° C | 38% | 1009.7 hPa | 0 mm | - | 557 W/m² | - |
* Rain latest hour (hover to see other rain measurements)
** Current wind speed in m/s (hover to see current wind gust speed)